Lid_Strength_Index
-1 -1 -1 -1 -1 -1 -1 -1 -1 -1 -1 -1 -1 -2 -2 -2 -1 4 7 3 1 -5 -4 2 2 3 4 5 4 6 9 11 10 10 8 8 8 8 8 8 9 8 8 8 7
-1 -1 -1 -1 -1 -1 -1 -1 -1 -1 -1 -2 -1 -1 -1 -2 3 5 -1 -4 -5 -4 2 3 4 3 6 7 7 7 9 9 7 7 8 8 8 8 9 9 9 9 9 8 7
-1 -1 -1 -1 -1 -1 -1 -1 -1 -1 -2 -1 -2 -2 -2 -1 5 6 -3 -5 -5 -2 2 2 3 4 6 7 8 7 9 7 7 7 7 8 8 8 9 9 8 9 8 9 8
-1 -1 -1 -1 -1 -1 -1 -1 -1 -1 -1 -1 -1 -2 -2 3 8 6 -4 -4 -5 2 3 5 5 5 8 8 8 9 8 8 7 8 8 8 8 9 9 7 8 8 8 9 9
-1 -1 -1 -1 -1 -1 -1 -1 -1 -1 -1 -1 -1 -2 3 7 7 5 -4 -1 4 3 4 5 7 7 9 9 8 9 9 8 8 9 8 8 9 9 9 8 8 9 9 9 8
-1 -1 -1 -1 -1 -1 -1 -1 -1 -1 -1 -1 -1 -1 5 9 5 5 5 4 4 4 4 5 6 7 9 9 9 9 9 9 9 9 9 9 10 9 9 9 9 9 9 9 8
-0 -1 -1 -1 -1 -0 -0 -0 -0 -0 -0 -1 -1 3 6 7 6 6 5 5 5 4 4 5 6 6 7 9 8 9 10 10 10 10 10 9 12 11 9 10 10 10 10 10 9
-0 -0 -1 -1 -0 -0 -0 -0 0 0 -1 -1 -0 6 9 6 6 6 5 5 5 5 5 5 6 7 8 8 10 11 12 12 11 10 10 10 12 11 11 11 10 10 10 10 10
-0 -0 -0 -0 0 0 0 0 0 -0 -1 -1 5 8 10 4 7 6 5 6 6 6 5 5 6 9 9 11 11 12 14 13 12 10 11 11 12 11 11 11 11 11 11 11 11
0 0 0 0 0 0 1 1 1 1 3 3 6 9 8 9 8 7 6 6 7 7 7 8 9 10 12 12 14 13 14 14 14 12 11 12 12 11 11 12 12 11 11 12 11
1 1 1 0 1 1 4 6 9 9 8 9 10 10 9 8 8 8 7 8 7 9 10 10 11 12 11 13 13 13 13 14 13 12 13 14 14 13 12 13 13 13 12 12 12
1 1 1 1 1 2 5 7 8 7 9 7 9 9 8 8 10 9 8 10 10 12 10 11 12 11 12 12 12 13 14 14 14 13 13 14 14 13 13 12 12 12 12 12 12
2 1 1 1 2 6 6 7 5 6 10 9 8 9 9 9 10 10 9 10 11 12 12 13 11 11 12 13 13 14 15 15 15 14 14 15 14 13 12 13 12 13 13 13 12
2 2 1 2 5 7 7 6 5 7 14 12 10 9 9 9 11 9 9 10 11 13 13 12 12 12 13 13 14 15 14 14 15 15 17 15 16 14 14 13 13 12 12 13 12
2 3 3 4 7 8 7 6 6 10 19 12 11 8 10 10 10 10 9 10 12 13 12 14 13 14 14 14 14 14 13 14 14 16 16 16 16 14 14 13 12 12 12 12 11
2 2 4 6 8 7 6 7 9 15 19 13 11 12 12 11 11 10 11 10 11 12 13 13 12 13 13 14 14 14 14 14 15 15 16 16 17 15 14 13 12 12 12 11 11
3 2 5 7 10 7 8 10 14 18 14 15 14 13 13 13 13 12 13 13 14 16 16 14 14 14 13 14 13 14 15 17 16 17 17 17 17 14 13 13 12 11 11 11 11
3 4 5 6 7 8 10 13 19 15 15 13 14 14 14 13 14 14 14 15 14 15 17 17 18 15 14 14 15 16 15 17 18 18 18 17 17 13 13 12 12 12 11 11 10
4 8 9 8 6 8 13 17 17 16 13 13 14 16 16 14 14 14 15 16 14 14 16 17 17 16 15 15 14 16 16 15 18 18 18 17 15 12 13 13 12 12 11 10 10
7 9 10 8 8 10 14 14 15 14 13 13 15 15 17 16 15 16 16 14 14 14 14 15 17 16 16 15 15 15 15 17 17 18 18 17 17 14 14 13 13 12 11 10 9
7 10 9 8 9 13 15 15 13 12 12 14 14 16 16 16 16 16 16 14 14 15 14 15 15 17 16 17 17 17 17 17 17 17 18 18 15 13 12 12 12 12 11 10 10
8 11 10 8 15 16 15 13 11 12 12 13 13 14 15 16 16 16 16 15 13 14 15 15 16 18 17 16 16 16 17 16 17 18 19 18 15 12 12 12 12 12 11 10 10
9 10 8 9 17 16 14 12 12 13 13 13 14 13 14 15 16 15 15 13 13 14 14 14 16 19 18 17 16 17 17 17 17 17 19 17 14 13 13 13 13 12 11 11 10
10 13 11 10 13 16 14 14 13 12 13 13 13 13 14 15 15 16 15 13 13 13 9 11 17 17 17 17 17 18 18 17 16 18 18 17 15 13 13 13 13 13 12 11 10
9 11 10 15 14 13 13 14 13 14 13 13 14 13 14 16 16 15 15 14 13 11 13 14 16 17 17 16 16 17 17 17 17 17 16 16 16 13 12 12 11 11 12 12 11
9 11 10 12 12 13 13 15 14 13 14 13 15 14 14 15 14 14 14 14 14 14 14 15 16 17 17 16 16 17 17 17 16 17 17 17 16 13 12 12 12 12 12 12 12
7 8 9 11 12 13 14 13 13 12 12 11 12 14 15 14 12 13 12 13 13 14 15 16 16 17 18 17 17 18 16 17 17 16 15 17 13 14 13 13 12 11 12 12 12